TimeEST,TemperatureF,Dew PointF,Humidity,Sea Level PressureIn,VisibilityMPH,Wind Direction,Wind SpeedMPH,Gust SpeedMPH,PrecipitationIn,Events,Conditions,WindDirDegrees,DateUTC
12:53 AM,9.0,-5.1,53,30.37,10.0,South,10.4,-,N/A,,Clear,190,2014-01-30 05:53:00
1:53 AM,8.1,-5.1,55,30.35,10.0,South,10.4,-,N/A,,Clear,190,2014-01-30 06:53:00
2:53 AM,9.0,-5.1,53,30.35,10.0,South,9.2,-,N/A,,Clear,190,2014-01-30 07:53:00
3:53 AM,8.1,-5.1,55,30.35,10.0,South,9.2,-,N/A,,Clear,180,2014-01-30 08:53:00
4:53 AM,7.0,-6.0,55,30.35,10.0,South,9.2,-,N/A,,Clear,180,2014-01-30 09:53:00
5:53 AM,6.1,-6.0,58,30.36,10.0,South,8.1,-,N/A,,Clear,170,2014-01-30 10:53:00
6:53 AM,6.1,-6.0,58,30.38,10.0,South,6.9,-,N/A,,Clear,170,2014-01-30 11:53:00
7:53 AM,7.0,-6.0,55,30.38,10.0,South,6.9,-,N/A,,Clear,180,2014-01-30 12:53:00
8:53 AM,10.0,-5.1,51,30.37,10.0,South,6.9,-,N/A,,Clear,170,2014-01-30 13:53:00
9:53 AM,15.1,-2.9,45,30.36,10.0,South,6.9,-,N/A,,Clear,190,2014-01-30 14:53:00
10:53 AM,19.0,-2.0,40,30.34,10.0,South,8.1,-,N/A,,Clear,180,2014-01-30 15:53:00
11:53 AM,21.0,-0.9,38,30.30,10.0,South,9.2,-,N/A,,Clear,180,2014-01-30 16:53:00
12:53 PM,24.1,-2.0,32,30.27,10.0,SW,8.1,-,N/A,,Clear,220,2014-01-30 17:53:00
1:53 PM,26.1,-2.9,28,30.19,10.0,SSE,10.4,18.4,N/A,,Clear,160,2014-01-30 18:53:00
2:53 PM,28.9,-2.0,26,30.16,10.0,South,9.2,-,N/A,,Clear,180,2014-01-30 19:53:00
3:53 PM,30.0,-2.0,25,30.11,10.0,SSE,9.2,-,N/A,,Clear,150,2014-01-30 20:53:00
4:53 PM,30.0,-2.9,24,30.12,10.0,South,5.8,-,N/A,,Clear,190,2014-01-30 21:53:00
5:53 PM,30.0,-2.0,25,30.09,10.0,South,6.9,-,N/A,,Clear,170,2014-01-30 22:53:00
6:53 PM,30.0,-2.0,25,30.07,10.0,South,10.4,-,N/A,,Clear,170,2014-01-30 23:53:00
7:53 PM,30.0,1.0,29,30.05,10.0,SSE,10.4,-,N/A,,Clear,160,2014-01-31 00:53:00
8:53 PM,30.0,1.9,30,30.03,10.0,SSE,10.4,-,N/A,,Clear,160,2014-01-31 01:53:00
9:53 PM,30.0,3.0,32,30.00,10.0,SSE,10.4,-,N/A,,Clear,160,2014-01-31 02:53:00
10:53 PM,32.0,3.0,29,29.99,10.0,South,12.7,-,N/A,,Clear,180,2014-01-31 03:53:00
11:53 PM,32.0,3.9,31,30.01,10.0,SSW,6.9,-,N/A,,Clear,200,2014-01-31 04:53:00